QPF
0.16 0.13 0.03 0.01 0.02 0.03 0.03 0.02 0.03 0.03 0.03 0.02 0.02 0.02 0.03 0.03 0.03 0.05 0.04 0.05 0.02 0.01 0.02 0.05 0.10 0.11 0.09 0.08 0.09 0.10 0.09 0.09 0.09 0.07 0.07 0.08 0.08 0.07 0.06 0.06 0.05 0.05 0.04 0.05 0.05 0.03 0.02 0.02 0.01
0.08 0.04 0.02 0.02 0.04 0.03 0.03 0.02 0.03 0.03 0.02 0.02 0.02 0.02 0.02 0.02 0.02 0.02 0.03 0.03 0.01 0.01 0.01 0.02 0.06 0.09 0.08 0.08 0.07 0.09 0.08 0.09 0.08 0.09 0.07 0.06 0.06 0.05 0.05 0.04 0.05 0.05 0.04 0.05 0.06 0.06 0.05 0.04 0.03
0.03 0.03 0.02 0.04 0.04 0.03 0.03 0.03 0.03 0.02 0.02 0.01 0.02 0.01 0.02 0.03 0.01 0.02 0.03 0.01 0.00 0.01 0.02 0.03 0.06 0.08 0.07 0.06 0.07 0.08 0.07 0.07 0.07 0.07 0.06 0.05 0.05 0.04 0.04 0.03 0.03 0.04 0.06 0.06 0.07 0.07 0.07 0.06 0.05
0.02 0.03 0.03 0.06 0.04 0.02 0.02 0.02 0.02 0.02 0.02 0.01 0.01 0.01 0.01 0.01 0.01 0.02 0.02 0.01 0.01 0.01 0.02 0.04 0.05 0.07 0.07 0.06 0.06 0.07 0.07 0.06 0.06 0.07 0.06 0.04 0.04 0.03 0.03 0.03 0.05 0.07 0.07 0.08 0.09 0.10 0.09 0.07 0.06
0.04 0.04 0.06 0.05 0.03 0.02 0.02 0.01 0.01 0.01 0.01 0.01 0.01 0.01 0.01 0.01 0.02 0.02 0.01 0.02 0.01 0.01 0.02 0.02 0.04 0.05 0.04 0.05 0.06 0.06 0.06 0.06 0.05 0.06 0.05 0.04 0.04 0.03 0.03 0.05 0.05 0.08 0.09 0.11 0.13 0.12 0.11 0.10 0.08
0.05 0.03 0.04 0.04 0.03 0.02 0.03 0.01 0.01 0.00 0.00 0.01 0.01 0.01 0.01 0.01 0.03 0.03 0.02 0.03 0.02 0.01 0.01 0.02 0.04 0.04 0.04 0.04 0.04 0.03 0.03 0.04 0.04 0.04 0.04 0.04 0.04 0.04 0.04 0.06 0.06 0.08 0.10 0.11 0.11 0.10 0.10 0.11 0.10
0.05 0.04 0.04 0.03 0.03 0.03 0.02 0.01 0.01 0.01 0.01 0.00 0.00 0.01 0.02 0.03 0.04 0.03 0.02 0.03 0.05 0.02 0.02 0.02 0.02 0.02 0.03 0.02 0.02 0.01 0.01 0.01 0.02 0.02 0.02 0.03 0.04 0.04 0.03 0.04 0.05 0.08 0.11 0.10 0.09 0.08 0.08 0.10 0.09
0.05 0.04 0.04 0.03 0.03 0.03 0.02 0.01 0.01 0.01 0.01 0.00 0.01 0.01 0.02 0.02 0.04 0.04 0.02 0.02 0.02 0.02 0.03 0.02 0.01 0.01 0.01 0.00 0.01 0.00 0.00 0.01 0.01 0.02 0.02 0.02 0.03 0.02 0.02 0.02 0.03 0.06 0.11 0.13 0.11 0.09 0.09 0.09 0.08
0.05 0.06 0.05 0.04 0.04 0.03 0.01 0.01 0.01 0.01 0.01 0.01 0.01 0.00 0.00 0.01 0.04 0.05 0.03 0.02 0.02 0.01 0.02 0.01 0.01 0.01 0.01 0.00 0.00 0.01 0.01 0.01 0.01 0.01 0.01 0.01 0.01 0.02 0.01 0.01 0.02 0.04 0.08 0.10 0.10 0.12 0.11 0.08 0.07
0.05 0.07 0.06 0.03 0.02 0.02 0.01 0.01 0.01 0.02 0.02 0.03 0.02 0.01 0.00 0.02 0.03 0.05 0.04 0.01 0.01 0.01 0.01 0.00 0.00 0.00 0.00 0.00 0.00 0.00 0.00 0.00 0.00 0.00 0.00 0.00 0.00 0.01 0.01 0.01 0.01 0.03 0.04 0.04 0.06 0.08 0.09 0.10 0.08
0.05 0.06 0.05 0.02 0.01 0.01 0.01 0.01 0.01 0.01 0.02 0.01 0.02 0.02 0.03 0.03 0.03 0.03 0.04 0.02 0.01 0.00 0.00 0.00 0.00 0.00 0.00 0.00 0.00 0.00 0.00 0.00 0.00 0.00 0.00 0.00 0.00 0.00 0.00 0.01 0.01 0.01 0.02 0.02 0.03 0.03 0.05 0.06 0.09
0.04 0.04 0.03 0.03 0.02 0.02 0.02 0.02 0.01 0.01 0.01 0.01 0.01 0.03 0.05 0.07 0.05 0.03 0.02 0.01 0.00 0.00 0.00 0.00 0.00 0.00 0.00 0.00 0.00 0.00 0.00 0.00 0.00 0.00 0.00 0.00 0.00 0.00 0.00 0.01 0.00 0.01 0.01 0.01 0.02 0.02 0.02 0.03 0.04
0.03 0.03 0.02 0.02 0.03 0.02 0.02 0.02 0.01 0.01 0.01 0.01 0.02 0.04 0.04 0.07 0.05 0.03 0.01 0.00 0.00 0.00 0.00 0.00 0.00 0.00 0.00 0.00 0.00 0.00 0.00 0.00 0.00 0.00 0.00 0.00 0.00 0.00 0.00 0.00 0.01 0.00 0.00 0.01 0.01 0.01 0.02 0.02 0.02
0.01 0.02 0.02 0.02 0.02 0.03 0.04 0.03 0.02 0.02 0.01 0.01 0.01 0.02 0.02 0.02 0.02 0.02 0.01 0.00 0.00 0.00 0.00 0.00 0.00 0.00 0.00 0.00 0.00 0.00 0.00 0.00 0.00 0.00 0.00 0.00 0.00 0.00 0.00 0.00 0.00 0.00 0.00 0.00 0.01 0.01 0.02 0.02 0.02
0.01 0.02 0.02 0.01 0.02 0.01 0.02 0.03 0.01 0.01 0.01 0.01 0.01 0.00 0.01 0.01 0.01 0.01 0.01 0.00 0.00 0.00 0.00 0.00 0.00 0.00 0.00 0.00 0.00 0.00 0.00 0.00 0.00 0.00 0.00 0.00 0.00 0.00 0.00 0.00 0.00 0.01 0.01 0.00 0.00 0.01 0.02 0.02 0.02
0.01 0.02 0.02 0.01 0.01 0.01 0.01 0.02 0.01 0.00 0.01 0.01 0.01 0.00 0.01 0.00 0.00 0.00 0.00 0.00 0.00 0.00 0.00 0.00 0.00 0.00 0.00 0.00 0.00 0.00 0.00 0.00 0.00 0.00 0.00 0.00 0.00 0.00 0.00 0.00 0.00 0.01 0.01 0.01 0.00 0.01 0.02 0.03 0.03
0.02 0.02 0.02 0.01 0.01 0.01 0.01 0.02 0.01 0.01 0.02 0.02 0.01 0.01 0.01 0.00 0.00 0.00 0.00 0.00 0.00 0.00 0.00 0.00 0.00 0.00 0.00 0.00 0.00 0.00 0.00 0.00 0.00 0.00 0.00 0.00 0.00 0.00 0.00 0.00 0.00 0.00 0.00 0.01 0.01 0.01 0.02 0.02 0.03
0.01 0.01 0.01 0.01 0.00 0.00 0.00 0.00 0.00 0.00 0.01 0.01 0.01 0.01 0.01 0.00 0.00 0.00 0.00 0.00 0.00 0.00 0.00 0.00 0.00 0.00 0.00 0.00 0.00 0.00 0.00 0.00 0.00 0.00 0.00 0.00 0.00 0.00 0.00 0.00 0.00 0.00 0.00 0.01 0.01 0.01 0.01 0.01 0.02
0.00 0.01 0.01 0.01 0.00 0.00 0.00 0.00 0.00 0.00 0.00 0.00 0.00 0.00 0.00 0.00 0.00 0.00 0.00 0.00 0.00 0.00 0.00 0.00 0.00 0.00 0.00 0.00 0.00 0.00 0.00 0.00 0.00 0.00 0.00 0.00 0.00 0.00 0.00 0.00 0.01 0.01 0.01 0.01 0.01 0.01 0.01 0.01 0.02
0.01 0.01 0.01 0.01 0.01 0.00 0.00 0.00 0.00 0.00 0.00 0.00 0.00 0.00 0.00 0.00 0.00 0.00 0.00 0.00 0.00 0.00 0.00 0.00 0.00 0.00 0.00 0.00 0.00 0.00 0.00 0.00 0.00 0.00 0.00 0.00 0.00 0.00 0.00 0.00 0.01 0.01 0.01 0.01 0.01 0.02 0.02 0.02 0.02
0.00 0.00 0.01 0.01 0.00 0.00 0.00 0.00 0.00 0.00 0.00 0.00 0.00 0.00 0.00 0.00 0.00 0.00 0.00 0.00 0.00 0.00 0.00 0.00 0.00 0.00 0.00 0.00 0.00 0.00 0.00 0.00 0.00 0.00 0.00 0.01 0.01 0.00 0.00 0.00 0.01 0.01 0.01 0.02 0.02 0.03 0.03 0.03 0.03
0.01 0.01 0.01 0.00 0.00 0.01 0.00 0.01 0.00 0.00 0.00 0.00 0.00 0.00 0.00 0.00 0.00 0.00 0.00 0.00 0.00 0.00 0.00 0.00 0.00 0.00 0.00 0.00 0.00 0.00 0.00 0.00 0.00 0.00 0.01 0.01 0.00 0.00 0.00 0.00 0.00 0.00 0.01 0.01 0.02 0.02 0.03 0.04 0.04
0.00 0.01 0.01 0.00 0.01 0.01 0.00 0.00 0.00 0.00 0.00 0.00 0.00 0.00 0.00 0.00 0.00 0.00 0.00 0.00 0.00 0.00 0.00 0.00 0.00 0.00 0.00 0.00 0.00 0.00 0.00 0.00 0.00 0.00 0.00 0.01 0.01 0.00 0.00 0.00 0.00 0.01 0.01 0.01 0.02 0.03 0.03 0.04 0.04
0.00 0.01 0.01 0.00 0.00 0.01 0.00 0.00 0.00 0.00 0.00 0.00 0.00 0.00 0.00 0.00 0.00 0.00 0.00 0.00 0.00 0.00 0.00 0.00 0.00 0.00 0.00 0.00 0.00 0.00 0.00 0.00 0.00 0.00 0.00 0.01 0.01 0.01 0.01 0.00 0.00 0.01 0.01 0.01 0.03 0.03 0.03 0.03 0.04
0.01 0.01 0.01 0.01 0.01 0.01 0.00 0.00 0.00 0.00 0.00 0.00 0.00 0.00 0.00 0.00 0.00 0.00 0.00 0.00 0.00 0.00 0.00 0.00 0.00 0.00 0.00 0.00 0.00 0.00 0.00 0.00 0.00 0.00 0.00 0.00 0.00 0.00 0.00 0.00 0.01 0.01 0.01 0.01 0.02 0.03 0.02 0.03 0.03
0.01 0.01 0.01 0.01 0.01 0.00 0.00 0.00 0.00 0.00 0.00 0.00 0.00 0.00 0.00 0.00 0.00 0.00 0.00 0.00 0.00 0.00 0.00 0.00 0.00 0.00 0.00 0.00 0.00 0.00 0.00 0.00 0.00 0.00 0.00 0.00 0.00 0.00 0.00 0.00 0.01 0.01 0.01 0.02 0.02 0.03 0.03 0.02 0.03
0.01 0.00 0.00 0.00 0.00 0.00 0.00 0.00 0.00 0.00 0.00 0.00 0.00 0.00 0.00 0.00 0.00 0.00 0.00 0.00 0.00 0.00 0.00 0.00 0.00 0.00 0.00 0.00 0.00 0.00 0.00 0.00 0.00 0.00 0.01 0.00 0.00 0.00 0.00 0.00 0.00 0.01 0.01 0.02 0.03 0.04 0.03 0.03 0.05
0.00 0.00 0.00 0.00 0.00 0.00 0.00 0.00 0.00 0.00 0.00 0.00 0.00 0.00 0.00 0.00 0.00 0.00 0.00 0.00 0.00 0.00 0.00 0.00 0.00 0.00 0.00 0.00 0.00 0.00 0.00 0.00 0.00 0.00 0.00 0.00 0.00 0.00 0.00 0.00 0.01 0.01 0.01 0.02 0.04 0.04 0.03 0.03 0.04
0.00 0.00 0.00 0.00 0.00 0.00 0.00 0.00 0.00 0.00 0.00 0.00 0.00 0.00 0.00 0.00 0.00 0.00 0.00 0.00 0.00 0.00 0.00 0.00 0.00 0.00 0.00 0.00 0.00 0.00 0.00 0.00 0.00 0.00 0.00 0.00 0.00 0.00 0.00 0.00 0.01 0.01 0.01 0.02 0.03 0.04 0.03 0.02 0.03
0.00 0.00 0.00 0.00 0.00 0.00 0.00 0.00 0.00 0.00 0.00 0.00 0.00 0.00 0.00 0.00 0.00 0.00 0.00 0.00 0.00 0.00 0.00 0.00 0.00 0.00 0.00 0.00 0.00 0.00 0.00 0.00 0.00 0.00 0.00 0.00 0.00 0.00 0.00 0.00 0.01 0.00 0.01 0.02 0.02 0.02 0.03 0.03 0.03
MSLP
1010.71 1011.04 1011.60 1012.33 1013.10 1013.81 1014.36 1014.69 1014.79 1014.70 1014.49 1014.26 1014.06 1013.92 1013.83 1013.77 1013.68 1013.52 1013.28 1012.99 1012.69 1012.44 1012.30 1012.29 1012.41 1012.63 1012.87 1013.08 1013.21 1013.25 1013.21 1013.12 1013.05 1013.04 1013.11 1013.26 1013.45 1013.63 1013.76 1013.80 1013.74 1013.61 1013.43 1013.26 1013.13 1013.06 1013.05 1013.07 1013.08
1010.78 1011.25 1011.90 1012.64 1013.35 1013.93 1014.31 1014.44 1014.36 1014.12 1013.83 1013.56 1013.37 1013.28 1013.27 1013.30 1013.29 1013.22 1013.06 1012.83 1012.60 1012.41 1012.33 1012.37 1012.54 1012.79 1013.06 1013.29 1013.45 1013.50 1013.47 1013.40 1013.34 1013.32 1013.37 1013.48 1013.62 1013.76 1013.83 1013.82 1013.73 1013.57 1013.39 1013.23 1013.12 1013.08 1013.09 1013.13 1013.15
1010.98 1011.55 1012.25 1012.96 1013.57 1014.00 1014.19 1014.14 1013.90 1013.55 1013.20 1012.92 1012.77 1012.74 1012.81 1012.91 1012.98 1012.97 1012.87 1012.71 1012.54 1012.41 1012.38 1012.47 1012.68 1012.96 1013.26 1013.52 1013.69 1013.76 1013.74 1013.68 1013.62 1013.59 1013.62 1013.69 1013.78 1013.85 1013.86 1013.80 1013.67 1013.50 1013.32 1013.17 1013.08 1013.07 1013.10 1013.16 1013.19
1011.30 1011.95 1012.65 1013.29 1013.77 1014.03 1014.05 1013.84 1013.48 1013.06 1012.69 1012.44 1012.34 1012.38 1012.51 1012.68 1012.80 1012.84 1012.79 1012.68 1012.56 1012.48 1012.50 1012.63 1012.88 1013.18 1013.49 1013.75 1013.92 1014.00 1013.99 1013.93 1013.87 1013.83 1013.83 1013.86 1013.90 1013.91 1013.87 1013.77 1013.60 1013.42 1013.24 1013.11 1013.04 1013.05 1013.10 1013.17 1013.20
1011.76 1012.43 1013.08 1013.62 1013.95 1014.05 1013.91 1013.58 1013.15 1012.72 1012.37 1012.17 1012.14 1012.25 1012.44 1012.64 1012.80 1012.86 1012.84 1012.77 1012.68 1012.65 1012.71 1012.87 1013.12 1013.42 1013.72 1013.97 1014.13 1014.19 1014.18 1014.12 1014.05 1014.00 1013.98 1013.98 1013.98 1013.95 1013.87 1013.73 1013.55 1013.36 1013.19 1013.07 1013.02 1013.03 1013.09 1013.16 1013.19
1012.30 1012.95 1013.51 1013.91 1014.08 1014.03 1013.76 1013.36 1012.91 1012.51 1012.22 1012.10 1012.14 1012.31 1012.54 1012.77 1012.93 1013.01 1013.00 1012.95 1012.89 1012.89 1012.97 1013.14 1013.40 1013.68 1013.95 1014.16 1014.28 1014.32 1014.29 1014.22 1014.14 1014.08 1014.05 1014.04 1014.01 1013.96 1013.86 1013.71 1013.52 1013.33 1013.16 1013.05 1013.00 1013.01 1013.06 1013.11 1013.12
1012.86 1013.43 1013.87 1014.11 1014.14 1013.95 1013.60 1013.17 1012.74 1012.40 1012.21 1012.17 1012.29 1012.50 1012.76 1012.98 1013.14 1013.21 1013.20 1013.16 1013.13 1013.15 1013.24 1013.42 1013.65 1013.90 1014.12 1014.28 1014.36 1014.36 1014.30 1014.22 1014.14 1014.08 1014.05 1014.03 1014.00 1013.94 1013.84 1013.69 1013.51 1013.33 1013.16 1013.04 1012.98 1012.97 1012.99 1013.01 1012.99
1013.35 1013.82 1014.11 1014.20 1014.08 1013.79 1013.40 1012.97 1012.60 1012.35 1012.25 1012.30 1012.47 1012.72 1012.98 1013.19 1013.33 1013.39 1013.38 1013.34 1013.33 1013.36 1013.47 1013.64 1013.85 1014.05 1014.22 1014.33 1014.35 1014.31 1014.23 1014.14 1014.06 1014.01 1013.98 1013.97 1013.95 1013.90 1013.81 1013.67 1013.50 1013.32 1013.15 1013.02 1012.94 1012.89 1012.86 1012.83 1012.77
1013.72 1014.06 1014.20 1014.14 1013.91 1013.56 1013.15 1012.76 1012.46 1012.30 1012.28 1012.41 1012.63 1012.89 1013.13 1013.32 1013.43 1013.47 1013.46 1013.44 1013.44 1013.50 1013.61 1013.77 1013.95 1014.12 1014.24 1014.29 1014.28 1014.21 1014.12 1014.02 1013.95 1013.90 1013.89 1013.89 1013.88 1013.84 1013.76 1013.63 1013.47 1013.30 1013.13 1012.98 1012.86 1012.76 1012.67 1012.59 1012.49
1013.91 1014.12 1014.13 1013.96 1013.65 1013.26 1012.86 1012.53 1012.31 1012.23 1012.29 1012.46 1012.70 1012.95 1013.17 1013.33 1013.42 1013.44 1013.43 1013.43 1013.45 1013.53 1013.65 1013.80 1013.96 1014.10 1014.19 1014.21 1014.17 1014.09 1014.00 1013.91 1013.84 1013.81 1013.81 1013.81 1013.81 1013.77 1013.70 1013.58 1013.43 1013.26 1013.08 1012.91 1012.74 1012.59 1012.45 1012.31 1012.16
1013.95 1014.05 1013.95 1013.70 1013.34 1012.95 1012.59 1012.31 1012.16 1012.15 1012.25 1012.44 1012.68 1012.90 1013.09 1013.22 1013.29 1013.31 1013.31 1013.32 1013.37 1013.47 1013.60 1013.75 1013.91 1014.03 1014.10 1014.11 1014.08 1014.01 1013.93 1013.85 1013.80 1013.78 1013.78 1013.78 1013.76 1013.73 1013.65 1013.54 1013.39 1013.22 1013.03 1012.83 1012.63 1012.43 1012.23 1012.03 1011.83
1013.88 1013.88 1013.72 1013.42 1013.06 1012.69 1012.37 1012.15 1012.05 1012.07 1012.20 1012.38 1012.59 1012.78 1012.93 1013.03 1013.08 1013.11 1013.13 1013.17 1013.24 1013.35 1013.50 1013.66 1013.81 1013.93 1014.01 1014.04 1014.03 1013.99 1013.94 1013.89 1013.86 1013.83 1013.82 1013.80 1013.77 1013.72 1013.63 1013.52 1013.37 1013.19 1013.00 1012.78 1012.54 1012.30 1012.04 1011.79 1011.56
1013.77 1013.72 1013.51 1013.21 1012.87 1012.53 1012.26 1012.09 1012.01 1012.04 1012.15 1012.30 1012.47 1012.61 1012.73 1012.81 1012.86 1012.89 1012.93 1013.00 1013.09 1013.23 1013.38 1013.55 1013.71 1013.84 1013.95 1014.01 1014.05 1014.05 1014.04 1014.03 1014.01 1013.98 1013.95 1013.90 1013.84 1013.76 1013.66 1013.53 1013.39 1013.21 1013.01 1012.78 1012.52 1012.23 1011.93 1011.63 1011.36
1013.71 1013.62 1013.41 1013.13 1012.82 1012.52 1012.29 1012.13 1012.06 1012.07 1012.13 1012.23 1012.34 1012.44 1012.52 1012.58 1012.63 1012.69 1012.75 1012.84 1012.96 1013.10 1013.27 1013.44 1013.62 1013.78 1013.92 1014.04 1014.12 1014.19 1014.23 1014.24 1014.23 1014.19 1014.14 1014.06 1013.96 1013.85 1013.73 1013.60 1013.45 1013.28 1013.09 1012.85 1012.57 1012.26 1011.92 1011.58 1011.27
1013.74 1013.64 1013.45 1013.19 1012.92 1012.66 1012.44 1012.28 1012.18 1012.14 1012.14 1012.17 1012.21 1012.27 1012.32 1012.37 1012.43 1012.50 1012.59 1012.70 1012.83 1012.98 1013.15 1013.34 1013.53 1013.72 1013.91 1014.08 1014.23 1014.35 1014.44 1014.48 1014.48 1014.43 1014.34 1014.23 1014.10 1013.97 1013.83 1013.70 1013.56 1013.41 1013.22 1012.98 1012.70 1012.36 1012.00 1011.62 1011.28
1013.88 1013.78 1013.61 1013.39 1013.15 1012.91 1012.69 1012.51 1012.36 1012.25 1012.17 1012.12 1012.10 1012.10 1012.12 1012.16 1012.23 1012.32 1012.42 1012.54 1012.68 1012.84 1013.01 1013.21 1013.42 1013.64 1013.88 1014.11 1014.32 1014.50 1014.63 1014.69 1014.69 1014.63 1014.52 1014.38 1014.23 1014.08 1013.94 1013.82 1013.70 1013.56 1013.38 1013.16 1012.87 1012.52 1012.13 1011.73 1011.36
1014.09 1014.01 1013.86 1013.67 1013.46 1013.23 1013.00 1012.78 1012.57 1012.38 1012.22 1012.08 1011.98 1011.93 1011.91 1011.94 1012.01 1012.10 1012.22 1012.34 1012.49 1012.64 1012.82 1013.02 1013.26 1013.52 1013.80 1014.08 1014.35 1014.58 1014.74 1014.83 1014.84 1014.77 1014.64 1014.48 1014.32 1014.16 1014.03 1013.93 1013.83 1013.71 1013.56 1013.34 1013.05 1012.69 1012.29 1011.87 1011.49
1014.34 1014.27 1014.15 1013.99 1013.80 1013.58 1013.34 1013.08 1012.81 1012.54 1012.28 1012.06 1011.88 1011.77 1011.71 1011.71 1011.76 1011.85 1011.96 1012.08 1012.22 1012.38 1012.56 1012.77 1013.03 1013.32 1013.65 1013.98 1014.29 1014.56 1014.76 1014.86 1014.88 1014.81 1014.68 1014.51 1014.35 1014.20 1014.09 1014.01 1013.93 1013.84 1013.70 1013.49 1013.21 1012.85 1012.43 1012.01 1011.62
1014.55 1014.50 1014.42 1014.30 1014.14 1013.94 1013.70 1013.41 1013.09 1012.75 1012.41 1012.11 1011.85 1011.66 1011.54 1011.49 1011.51 1011.57 1011.66 1011.77 1011.90 1012.05 1012.23 1012.46 1012.74 1013.06 1013.42 1013.79 1014.14 1014.45 1014.67 1014.79 1014.82 1014.75 1014.63 1014.48 1014.33 1014.20 1014.11 1014.05 1014.00 1013.93 1013.81 1013.61 1013.32 1012.96 1012.55 1012.13 1011.74
1014.68 1014.66 1014.62 1014.56 1014.45 1014.30 1014.08 1013.79 1013.45 1013.06 1012.66 1012.28 1011.94 1011.67 1011.48 1011.36 1011.32 1011.33 1011.38 1011.46 1011.57 1011.70 1011.89 1012.12 1012.41 1012.76 1013.14 1013.54 1013.92 1014.25 1014.49 1014.64 1014.68 1014.63 1014.53 1014.39 1014.27 1014.17 1014.11 1014.07 1014.04 1013.98 1013.86 1013.67 1013.39 1013.03 1012.63 1012.22 1011.85
1014.70 1014.73 1014.77 1014.78 1014.76 1014.68 1014.52 1014.27 1013.94 1013.54 1013.10 1012.66 1012.24 1011.89 1011.61 1011.40 1011.28 1011.22 1011.20 1011.23 1011.30 1011.42 1011.58 1011.81 1012.11 1012.46 1012.86 1013.27 1013.66 1014.00 1014.26 1014.42 1014.48 1014.46 1014.38 1014.28 1014.18 1014.11 1014.07 1014.05 1014.03 1013.98 1013.87 1013.68 1013.40 1013.06 1012.68 1012.29 1011.95
1014.64 1014.74 1014.86 1014.98 1015.07 1015.10 1015.04 1014.88 1014.60 1014.22 1013.77 1013.29 1012.82 1012.38 1012.00 1011.70 1011.47 1011.32 1011.22 1011.18 1011.19 1011.27 1011.40 1011.60 1011.88 1012.21 1012.60 1013.00 1013.38 1013.72 1013.98 1014.16 1014.24 1014.25 1014.20 1014.14 1014.08 1014.03 1014.02 1014.01 1014.00 1013.95 1013.84 1013.65 1013.39 1013.06 1012.70 1012.35 1012.04
1014.53 1014.71 1014.94 1015.19 1015.43 1015.60 1015.68 1015.63 1015.45 1015.13 1014.70 1014.20 1013.68 1013.17 1012.70 1012.29 1011.95 1011.69 1011.50 1011.37 1011.31 1011.31 1011.38 1011.53 1011.76 1012.05 1012.39 1012.75 1013.11 1013.43 1013.68 1013.86 1013.96 1013.99 1013.99 1013.96 1013.93 1013.92 1013.92 1013.93 1013.92 1013.87 1013.77 1013.59 1013.35 1013.05 1012.72 1012.40 1012.13
1014.43 1014.70 1015.05 1015.44 1015.83 1016.17 1016.40 1016.50 1016.43 1016.20 1015.82 1015.34 1014.79 1014.22 1013.67 1013.16 1012.72 1012.35 1012.05 1011.82 1011.66 1011.58 1011.57 1011.63 1011.78 1011.99 1012.25 1012.55 1012.84 1013.12 1013.35 1013.52 1013.63 1013.69 1013.71 1013.72 1013.72 1013.73 1013.76 1013.78 1013.78 1013.74 1013.65 1013.50 1013.28 1013.02 1012.73 1012.45 1012.21
1014.36 1014.73 1015.19 1015.72 1016.26 1016.77 1017.16 1017.41 1017.48 1017.35 1017.05 1016.60 1016.05 1015.45 1014.84 1014.25 1013.71 1013.24 1012.84 1012.51 1012.25 1012.06 1011.94 1011.89 1011.92 1012.02 1012.18 1012.38 1012.59 1012.80 1012.98 1013.13 1013.24 1013.31 1013.35 1013.39 1013.42 1013.46 1013.50 1013.54 1013.56 1013.55 1013.48 1013.36 1013.19 1012.96 1012.72 1012.48 1012.26
1014.37 1014.81 1015.37 1016.02 1016.70 1017.35 1017.89 1018.29 1018.49 1018.47 1018.24 1017.85 1017.32 1016.72 1016.07 1015.44 1014.83 1014.28 1013.79 1013.36 1013.00 1012.69 1012.45 1012.28 1012.18 1012.14 1012.17 1012.24 1012.35 1012.47 1012.59 1012.70 1012.79 1012.86 1012.91 1012.96 1013.01 1013.08 1013.14 1013.20 1013.25 1013.27 1013.25 1013.17 1013.05 1012.88 1012.68 1012.47 1012.28
1014.45 1014.95 1015.58 1016.31 1017.09 1017.85 1018.52 1019.03 1019.34 1019.42 1019.28 1018.95 1018.47 1017.89 1017.25 1016.59 1015.95 1015.35 1014.79 1014.29 1013.83 1013.42 1013.06 1012.76 1012.52 1012.34 1012.22 1012.16 1012.15 1012.17 1012.21 1012.26 1012.31 1012.35 1012.40 1012.45 1012.52 1012.59 1012.67 1012.76 1012.85 1012.91 1012.94 1012.92 1012.85 1012.74 1012.59 1012.42 1012.24
1014.61 1015.13 1015.80 1016.58 1017.41 1018.24 1018.97 1019.56 1019.96 1020.12 1020.06 1019.80 1019.38 1018.84 1018.23 1017.59 1016.96 1016.34 1015.75 1015.19 1014.66 1014.17 1013.71 1013.29 1012.92 1012.60 1012.35 1012.16 1012.02 1011.94 1011.89 1011.86 1011.85 1011.85 1011.87 1011.90 1011.96 1012.03 1012.13 1012.24 1012.36 1012.47 1012.55 1012.60 1012.60 1012.55 1012.45 1012.31 1012.16
1014.82 1015.34 1016.01 1016.79 1017.63 1018.47 1019.23 1019.86 1020.30 1020.52 1020.53 1020.33 1019.98 1019.51 1018.96 1018.36 1017.76 1017.16 1016.57 1016.00 1015.43 1014.88 1014.35 1013.84 1013.37 1012.95 1012.58 1012.27 1012.02 1011.83 1011.68 1011.57 1011.49 1011.42 1011.39 1011.38 1011.39 1011.45 1011.54 1011.66 1011.81 1011.96 1012.10 1012.21 1012.27 1012.29 1012.24 1012.15 1012.02
1015.08 1015.57 1016.21 1016.96 1017.77 1018.58 1019.32 1019.94 1020.40 1020.65 1020.70 1020.57 1020.29 1019.89 1019.41 1018.89 1018.35 1017.79 1017.23 1016.67 1016.11 1015.53 1014.96 1014.40 1013.87 1013.37 1012.92 1012.52 1012.18 1011.89 1011.65 1011.45 1011.28 1011.13 1011.01 1010.93 1010.89 1010.90 1010.96 1011.07 1011.22 1011.40 1011.58 1011.75 1011.87 1011.95 1011.96 1011.91 1011.81
Thickness
5783 5785 5786 5780 5770 5763 5754 5759 5764 5763 5767 5774 5777 5775 5771 5767 5762 5756 5772 5781 5781 5780 5776 5771 5768 5766 5765 5763 5762 5760 5759 5758 5757 5756 5754 5754 5753 5752 5751 5750 5750 5749 5750 5750 5750 5750 5751 5752 5753
5784 5784 5780 5774 5763 5753 5752 5763 5764 5766 5772 5777 5777 5776 5772 5768 5773 5772 5774 5777 5778 5777 5774 5770 5765 5763 5761 5760 5758 5757 5755 5754 5753 5752 5751 5750 5749 5748 5748 5747 5746 5746 5746 5746 5746 5746 5747 5748 5749
5782 5781 5772 5767 5760 5755 5753 5764 5767 5771 5776 5776 5773 5775 5772 5767 5772 5773 5775 5776 5776 5773 5770 5765 5762 5760 5758 5756 5755 5753 5752 5751 5750 5749 5748 5747 5746 5745 5744 5744 5743 5742 5742 5742 5743 5743 5743 5744 5745
5778 5773 5769 5762 5755 5761 5764 5768 5771 5769 5772 5775 5773 5769 5771 5774 5774 5775 5775 5775 5772 5769 5766 5762 5758 5756 5755 5753 5752 5751 5749 5748 5747 5745 5744 5743 5742 5742 5741 5740 5739 5739 5739 5738 5739 5740 5740 5741 5742
5774 5765 5757 5753 5755 5763 5770 5773 5773 5769 5768 5771 5772 5765 5763 5772 5776 5775 5773 5772 5769 5766 5763 5759 5754 5753 5751 5750 5749 5748 5746 5745 5743 5742 5741 5740 5739 5738 5737 5736 5736 5735 5735 5735 5735 5735 5736 5737 5738
5762 5760 5750 5747 5751 5760 5768 5773 5772 5769 5768 5769 5769 5764 5761 5771 5771 5770 5770 5768 5766 5763 5760 5757 5751 5750 5748 5747 5746 5744 5743 5741 5740 5738 5737 5736 5735 5734 5734 5733 5732 5732 5732 5731 5731 5732 5732 5733 5734
5755 5753 5749 5750 5750 5754 5763 5771 5769 5767 5765 5768 5771 5761 5760 5766 5768 5768 5767 5765 5763 5760 5758 5756 5754 5750 5746 5744 5743 5741 5740 5738 5737 5736 5734 5733 5732 5731 5730 5729 5729 5728 5728 5728 5728 5729 5729 5730 5731
5759 5754 5748 5750 5748 5750 5762 5768 5770 5769 5766 5773 5772 5761 5757 5764 5767 5765 5763 5761 5759 5757 5755 5754 5752 5750 5748 5745 5740 5738 5736 5735 5733 5732 5731 5730 5729 5729 5727 5727 5725 5725 5725 5725 5725 5725 5725 5727 5728
5756 5746 5742 5746 5747 5751 5762 5762 5766 5772 5769 5768 5770 5769 5768 5768 5765 5760 5757 5756 5754 5754 5753 5752 5750 5748 5745 5744 5740 5737 5734 5732 5731 5731 5728 5728 5730 5730 5728 5724 5722 5721 5721 5721 5722 5722 5722 5723 5725
5748 5740 5743 5752 5756 5756 5759 5761 5763 5763 5761 5761 5763 5765 5767 5764 5760 5756 5753 5752 5751 5751 5751 5751 5749 5746 5744 5742 5739 5737 5735 5733 5732 5730 5729 5729 5727 5726 5724 5720 5719 5718 5718 5718 5718 5719 5720 5721 5725
5746 5742 5747 5753 5758 5759 5757 5759 5764 5759 5754 5760 5761 5760 5761 5759 5757 5754 5754 5753 5752 5752 5749 5749 5748 5745 5742 5740 5738 5735 5733 5731 5730 5728 5726 5725 5725 5724 5722 5721 5720 5719 5717 5719 5718 5719 5721 5723 5723
5741 5743 5748 5751 5755 5755 5755 5757 5757 5758 5760 5770 5770 5766 5761 5756 5755 5754 5753 5752 5752 5750 5748 5747 5746 5744 5741 5739 5737 5733 5732 5730 5729 5726 5724 5723 5722 5720 5720 5718 5717 5716 5716 5715 5715 5715 5718 5719 5721
5737 5740 5745 5750 5752 5754 5755 5753 5754 5758 5766 5770 5768 5764 5760 5758 5756 5756 5755 5754 5751 5747 5746 5746 5744 5743 5741 5737 5733 5733 5730 5729 5727 5721 5721 5720 5719 5718 5717 5715 5712 5712 5712 5712 5711 5713 5714 5714 5717
5737 5740 5743 5747 5750 5751 5749 5751 5752 5757 5765 5764 5762 5760 5760 5758 5756 5754 5752 5750 5750 5748 5746 5745 5742 5740 5738 5736 5733 5732 5729 5724 5723 5720 5718 5716 5715 5713 5712 5711 5709 5708 5707 5708 5707 5709 5708 5709 5711
5738 5735 5738 5743 5747 5749 5748 5743 5750 5760 5762 5758 5758 5759 5759 5757 5756 5753 5753 5751 5751 5749 5747 5743 5740 5738 5736 5734 5731 5729 5726 5724 5721 5718 5716 5713 5711 5710 5709 5707 5706 5705 5703 5703 5703 5704 5703 5704 5706
5733 5730 5726 5737 5744 5746 5741 5733 5751 5760 5758 5755 5757 5758 5755 5755 5755 5755 5755 5753 5751 5749 5746 5742 5739 5736 5734 5731 5728 5727 5724 5721 5719 5716 5713 5711 5708 5706 5704 5703 5702 5699 5698 5698 5698 5697 5698 5699 5700
5722 5720 5724 5731 5742 5743 5740 5737 5751 5757 5755 5754 5755 5756 5755 5755 5755 5755 5755 5753 5751 5748 5745 5741 5738 5735 5732 5729 5726 5723 5721 5718 5716 5713 5710 5707 5705 5703 5702 5698 5697 5696 5694 5693 5693 5693 5693 5694 5694
5714 5721 5724 5727 5737 5738 5737 5740 5750 5754 5752 5753 5755 5756 5756 5755 5755 5755 5754 5753 5750 5748 5745 5740 5736 5733 5730 5727 5725 5722 5719 5717 5714 5711 5707 5703 5701 5699 5698 5696 5694 5692 5690 5688 5687 5687 5687 5688 5689
5724 5724 5724 5729 5737 5736 5737 5740 5746 5750 5749 5750 5753 5755 5755 5756 5758 5756 5753 5751 5749 5746 5743 5740 5736 5732 5728 5725 5722 5719 5717 5715 5712 5709 5705 5701 5699 5696 5695 5693 5691 5688 5686 5684 5684 5683 5683 5684 5686
5723 5722 5723 5729 5736 5737 5737 5739 5745 5745 5745 5747 5750 5754 5755 5755 5755 5753 5751 5749 5748 5745 5742 5740 5736 5732 5729 5724 5722 5718 5715 5713 5711 5707 5703 5700 5697 5694 5693 5691 5689 5686 5682 5681 5680 5678 5678 5680 5682
5721 5722 5723 5724 5732 5738 5737 5734 5739 5743 5746 5746 5748 5751 5754 5752 5753 5753 5750 5748 5746 5743 5741 5738 5736 5732 5728 5724 5720 5716 5713 5711 5709 5706 5702 5699 5695 5692 5689 5688 5686 5684 5682 5680 5677 5676 5674 5674 5678
5715 5725 5726 5727 5730 5726 5735 5719 5731 5738 5740 5741 5742 5746 5747 5749 5751 5750 5747 5746 5745 5744 5742 5739 5736 5733 5728 5724 5719 5716 5711 5709 5707 5705 5702 5699 5695 5692 5688 5686 5684 5683 5681 5678 5677 5676 5673 5671 5672
5722 5729 5730 5730 5731 5729 5732 5728 5725 5735 5729 5733 5738 5741 5744 5747 5748 5747 5746 5745 5745 5744 5740 5738 5735 5731 5727 5723 5718 5714 5712 5710 5708 5704 5701 5698 5696 5692 5689 5686 5684 5682 5680 5678 5675 5673 5672 5671 5670
5729 5729 5729 5732 5734 5714 5719 5723 5712 5721 5721 5727 5734 5738 5742 5744 5745 5745 5745 5744 5743 5741 5738 5736 5732 5729 5725 5721 5718 5714 5711 5708 5705 5702 5699 5698 5696 5692 5690 5686 5684 5682 5680 5677 5675 5672 5671 5669 5669
5730 5726 5716 5712 5711 5709 5720 5717 5708 5718 5724 5726 5728 5733 5738 5740 5742 5741 5740 5740 5738 5737 5735 5734 5731 5727 5724 5721 5719 5716 5712 5709 5705 5702 5700 5697 5695 5693 5690 5687 5684 5682 5679 5677 5675 5672 5671 5670 5668
5728 5730 5716 5704 5704 5711 5719 5713 5712 5721 5724 5727 5729 5731 5733 5735 5737 5736 5736 5736 5735 5734 5733 5732 5729 5726 5724 5721 5720 5717 5714 5710 5708 5703 5700 5698 5695 5693 5690 5687 5684 5682 5679 5678 5676 5674 5672 5671 5670
5728 5728 5732 5726 5720 5714 5715 5715 5718 5722 5721 5722 5723 5726 5727 5729 5731 5732 5732 5733 5732 5731 5730 5729 5727 5725 5723 5721 5719 5716 5714 5710 5707 5704 5701 5698 5696 5693 5690 5687 5685 5683 5680 5678 5676 5674 5673 5672 5670
5736 5733 5729 5723 5709 5703 5705 5709 5708 5709 5710 5715 5717 5719 5721 5723 5725 5726 5727 5728 5729 5729 5728 5727 5725 5724 5722 5720 5718 5715 5712 5709 5706 5703 5701 5698 5695 5692 5689 5687 5685 5683 5680 5678 5676 5675 5673 5672 5671
5728 5727 5727 5724 5722 5711 5701 5702 5709 5706 5707 5709 5712 5714 5715 5716 5718 5720 5721 5722 5723 5724 5723 5722 5722 5720 5719 5717 5716 5713 5710 5708 5705 5702 5700 5697 5694 5692 5689 5687 5685 5683 5681 5679 5676 5675 5673 5672 5672
5734 5731 5729 5719 5714 5716 5712 5700 5708 5707 5707 5707 5707 5709 5710 5711 5713 5714 5715 5716 5717 5717 5718 5718 5717 5716 5714 5713 5712 5710 5708 5706 5703 5702 5699 5697 5695 5692 5690 5688 5685 5683 5681 5679 5677 5674 5673 5672 5671